This is the latest recevied weather packets stored in our database for station/object EB1HRW. If no packets are shown the sender has not sent any weather packets the latest 10 day(s).
| Time | Temp. | Humidity | Pressure | Rain* | Wind** | Luminosity | Snow |
|---|---|---|---|---|---|---|---|
| 1777953239 | 6.11° C | 83% | 1013.5 hPa | 0 mm | - | - | - |
| 1777952337 | 6.11° C | 83% | 1013.5 hPa | 0 mm | - | - | - |
| 1777951440 | 5.56° C | 83% | 1013.6 hPa | 0 mm | - | - | - |
| 1777950539 | 5.56° C | 84% | 1013.7 hPa | 0 mm | - | - | - |
| 1777949637 | 6.11° C | 84% | 1013.6 hPa | 0 mm | - | - | - |
| 1777948738 | 6.67° C | 84% | 1013.5 hPa | 0 mm | - | - | - |
| 1777947839 | 6.67° C | 84% | 1013.5 hPa | 0 mm | - | - | - |
| 1777946937 | 6.67° C | 84% | 1013.6 hPa | 0 mm | - | - | - |
| 1777946039 | 6.67° C | 84% | 1013.6 hPa | 0 mm | - | - | - |
| 1777945137 | 6.67° C | 84% | 1013.5 hPa | 0 mm | - | - | - |
| 1777944238 | 6.67° C | 85% | 1013.5 hPa | 0 mm | - | - | - |
| 1777943338 | 7.22° C | 85% | 1013.6 hPa | 0 mm | - | - | - |
| 1777942439 | 7.22° C | 85% | 1013.8 hPa | 0 mm | - | - | - |
| 1777941537 | 7.22° C | 85% | 1013.8 hPa | 0 mm | - | - | - |
| 1777940638 | 7.22° C | 85% | 1013.9 hPa | 0 mm | - | - | - |
| 1777939739 | 7.78° C | 85% | 1014 hPa | 0 mm | - | - | - |
| 1777938837 | 7.78° C | 84% | 1013.9 hPa | 0 mm | - | - | - |
| 1777937938 | 8.33° C | 84% | 1013.8 hPa | 0 mm | - | - | - |
| 1777937039 | 8.33° C | 84% | 1013.7 hPa | 0 mm | - | - | - |
| 1777936138 | 8.33° C | 83% | 1013.7 hPa | 0 mm | - | - | - |
| 1777935238 | 8.89° C | 82% | 1013.5 hPa | 0 mm | - | - | - |
| 1777934337 | 8.89° C | 81% | 1013.5 hPa | 0 mm | - | - | - |
| 1777933438 | 9.44° C | 80% | 1013.5 hPa | 0 mm | - | - | - |
| 1777932538 | 9.44° C | 80% | 1013.6 hPa | 0 mm | - | - | - |
| 1777931638 | 9.44° C | 79% | 1013.6 hPa | 0 mm | - | - | - |
* Rain latest hour (hover to see other rain measurements)
** Current wind speed in m/s (hover to see current wind gust speed)